Weather reports worldwide

Advertisment
Ustica, Italy (16400): temperature & dewpoint: 10.12.2019 13:00:00 - 16.12.2019 13:00:00 (CET)Ustica, Italy (16400): wind speed & gusts: 10.12.2019 13:00:00 - 16.12.2019 13:00:00 (CET)Ustica, Italy (16400): wind direction: 10.12.2019 13:00:00 - 16.12.2019 13:00:00 (CET)Ustica, Italy (16400): reduced air pressure: 10.12.2019 13:00:00 - 16.12.2019 13:00:00 (CET)Ustica, Italy (16400): visibility: 10.12.2019 13:00:00 - 16.12.2019 13:00:00 (CET)Ustica, Italy (16400): sunshine duration: 10.12.2019 13:00:00 - 16.12.2019 13:00:00 (CET)
Date & Time tt [°C] td [°C] ff [km/h] ff [kn] fx [km/h] fx [kn] dd ppp [hPa] vv [km] sd [min]
16.12.2019 13:00:00 - - - - - - - - - -
16.12.2019 12:00:00 18,4 15,7 18 10 - - SE 1022,0 20 60
16.12.2019 11:00:00 18,0 15,4 15 8 - - SE 1022,6 20 60
16.12.2019 10:00:00 17,4 14,7 15 8 - - SE 1022,7 20 60
16.12.2019 09:00:00 16,0 13,5 15 8 - - SE 1022,6 20 30
16.12.2019 08:00:00 15,6 12,9 16 9 - - SE 1022,3 18 30
16.12.2019 07:00:00 15,0 12,7 0 0 - - N 1022,1 20 -
16.12.2019 06:00:00 - - - - - - - - - -
16.12.2019 05:00:00 - - - - - - - - - -
16.12.2019 04:00:00 - - - - - - - - - -
16.12.2019 03:00:00 - - - - - - - - - -
16.12.2019 02:00:00 - - - - - - - - - -
16.12.2019 01:00:00 - - - - - - - - - -
16.12.2019 00:00:00 - - - - - - - - - -
15.12.2019 23:00:00 - - - - - - - - - -
15.12.2019 22:00:00 - - - - - - - - - -
15.12.2019 21:00:00 - - - - - - - - - -
15.12.2019 20:00:00 - - - - - - - - - -
15.12.2019 19:00:00 15,0 12,5 0 0 - - N 1021,9 16 0
15.12.2019 18:00:00 15,2 12,7 0 0 - - N 1021,4 16 18
15.12.2019 17:00:00 15,2 12,7 0 0 - - N 1020,8 16 0
15.12.2019 16:00:00 16,0 13,3 0 0 - - N 1020,7 16 24
15.12.2019 15:00:00 16,0 13,5 0 0 - - N 1020,3 16 18
15.12.2019 14:00:00 16,0 13,7 0 0 - - N 1019,7 16 18
15.12.2019 13:00:00 17,0 14,5 0 0 - - N 1019,9 10 24
15.12.2019 12:00:00 17,0 14,5 0 0 - - N 1020,6 16 48
15.12.2019 11:00:00 17,0 14,5 0 0 - - N 1020,7 16 -
15.12.2019 10:00:00 16,0 13,7 0 0 - - N 1020,2 14 18
15.12.2019 09:00:00 15,2 12,7 0 0 - - N 1019,7 14 12
15.12.2019 08:00:00 15,0 12,5 0 0 - - N 1018,7 14 0
15.12.2019 07:00:00 15,0 12,5 0 0 - - N 1018,8 14 0
15.12.2019 06:00:00 - - - - - - - - - -
15.12.2019 05:00:00 - - - - - - - - - -
15.12.2019 04:00:00 - - - - - - - - - -
15.12.2019 03:00:00 - - - - - - - - - -
15.12.2019 02:00:00 - - - - - - - - - -
15.12.2019 01:00:00 - - - - - - - - - -
15.12.2019 00:00:00 - - - - - - - - - -
14.12.2019 23:00:00 - - - - - - - - - -
14.12.2019 22:00:00 - - - - - - - - - -
14.12.2019 21:00:00 - - - - - - - - - -
14.12.2019 20:00:00 - - - - - - - - - -
14.12.2019 19:00:00 15,6 13,7 0 0 - - N 1013,5 14 0
14.12.2019 18:00:00 16,0 14,0 0 0 - - N 1013,3 14 0
14.12.2019 17:00:00 16,0 14,0 0 0 - - N 1013,1 14 48
14.12.2019 16:00:00 16,2 14,4 0 0 - - N 1011,3 14 30
14.12.2019 15:00:00 16,0 14,4 0 0 - - N 1010,4 14 30
14.12.2019 14:00:00 - - - - - - - - - -
14.12.2019 13:00:00 15,6 14,0 0 0 - - N 1008,0 10 18
14.12.2019 12:00:00 16,0 14,4 0 0 - - N 1006,6 16 18
14.12.2019 11:00:00 15,4 13,2 0 0 - - N 1006,4 16 24
14.12.2019 10:00:00 15,0 12,5 0 0 - - N 1004,9 14 6
14.12.2019 09:00:00 14,8 12,3 0 0 - - N 1003,2 14 12
14.12.2019 08:00:00 14,0 11,2 0 0 - - N 1001,4 14 0
14.12.2019 07:00:00 14,0 11,2 0 0 - - N 1000,6 10 -
14.12.2019 06:00:00 - - - - - - - - - -
14.12.2019 05:00:00 - - - - - - - - - -
14.12.2019 04:00:00 - - - - - - - - - -
14.12.2019 03:00:00 - - - - - - - - - -
14.12.2019 02:00:00 - - - - - - - - - -
14.12.2019 01:00:00 - - - - - - - - - -
14.12.2019 00:00:00 - - - - - - - - - -
13.12.2019 23:00:00 - - - - - - - - - -
13.12.2019 22:00:00 - - - - - - - - - -
13.12.2019 21:00:00 - - - - - - - - - -
13.12.2019 20:00:00 - - - - - - - - - -
13.12.2019 19:00:00 15,2 12,7 0 0 - - N 995,8 14 0
13.12.2019 18:00:00 14,8 12,3 0 0 - - N 996,2 14 0
13.12.2019 17:00:00 13,0 11,1 0 0 - - N 996,6 14 0
13.12.2019 16:00:00 14,2 12,1 0 0 - - N 997,4 16 0
13.12.2019 15:00:00 14,0 12,0 0 0 - - N 1000,4 16 0
13.12.2019 14:00:00 13,2 11,6 0 0 - - N 1000,3 16 0
13.12.2019 13:00:00 13,2 10,2 0 0 - - N 1000,4 16 0
13.12.2019 12:00:00 13,0 12,1 34 18 - - SW 1002,0 18 0
13.12.2019 11:00:00 14,0 13,2 34 18 53 28 SW 1002,8 18 0
13.12.2019 10:00:00 13,4 12,5 0 0 - - N 1003,4 10 0
13.12.2019 09:00:00 13,2 12,2 37 20 - - SW 1003,5 18 0
13.12.2019 08:00:00 13,0 12,1 26 14 - - SW 1004,5 18 0
13.12.2019 07:00:00 12,8 11,5 28 15 - - SW 1004,6 10 -
13.12.2019 06:00:00 - - - - - - - - - -
13.12.2019 05:00:00 - - - - - - - - - -
13.12.2019 04:00:00 - - - - - - - - - -
13.12.2019 03:00:00 - - - - - - - - - -
13.12.2019 02:00:00 - - - - - - - - - -
13.12.2019 01:00:00 - - - - - - - - - -
13.12.2019 00:00:00 - - - - - - - - - -
12.12.2019 23:00:00 - - - - - - - - - -
12.12.2019 22:00:00 - - - - - - - - - -
12.12.2019 21:00:00 - - - - - - - - - -
12.12.2019 20:00:00 - - - - - - - - - -
12.12.2019 19:00:00 13,0 9,2 4 2 - - N 1007,6 18 0
12.12.2019 18:00:00 13,0 10,4 21 11 58 32 W 1008,1 18 0
12.12.2019 17:00:00 12,4 9,6 4 2 77 42 N 1008,2 18 0
12.12.2019 16:00:00 - - - - - - - - - -
12.12.2019 15:00:00 14,0 8,2 16 9 40 22 NNW 1008,3 18 18
12.12.2019 14:00:00 - - - - - - - - - -
12.12.2019 13:00:00 13,8 9,2 35 19 - - NW 1008,1 18 24
12.12.2019 12:00:00 - - - - - - - - - -
12.12.2019 11:00:00 - - - - - - - - - -
12.12.2019 10:00:00 - - - - - - - - - -
12.12.2019 09:00:00 - - - - - - - - - -
12.12.2019 08:00:00 - - - - - - - - - -
12.12.2019 07:00:00 - - - - - - - - - -
12.12.2019 06:00:00 - - - - - - - - - -
12.12.2019 05:00:00 - - - - - - - - - -
12.12.2019 04:00:00 - - - - - - - - - -
12.12.2019 03:00:00 - - - - - - - - - -
12.12.2019 02:00:00 - - - - - - - - - -
12.12.2019 01:00:00 - - - - - - - - - -
12.12.2019 00:00:00 - - - - - - - - - -
11.12.2019 23:00:00 - - - - - - - - - -
11.12.2019 22:00:00 - - - - - - - - - -
11.12.2019 21:00:00 - - - - - - - - - -
11.12.2019 20:00:00 - - - - - - - - - -
11.12.2019 19:00:00 11,4 8,9 13 7 - - N 1011,3 10 -
11.12.2019 18:00:00 10,8 8,2 15 8 - - N 1011,2 16 -
11.12.2019 17:00:00 11,8 8,9 15 8 - - N 1010,8 20 -
11.12.2019 16:00:00 13,6 10,5 4 2 - - N 1010,3 20 18
11.12.2019 15:00:00 14,6 10,1 15 8 34 18 N 1010,3 25 60
11.12.2019 14:00:00 14,8 11,1 13 7 - - N 1010,4 20 12
11.12.2019 13:00:00 17,4 13,2 4 2 - - N 1010,4 25 60
11.12.2019 12:00:00 16,8 10,7 8 4 - - N 1011,3 25 48
11.12.2019 11:00:00 16,6 11,3 9 5 - - N 1011,7 30 60
11.12.2019 10:00:00 15,6 10,9 9 5 - - N 1012,2 25 60
11.12.2019 09:00:00 14,2 10,4 13 7 - - N 1011,7 25 60
11.12.2019 08:00:00 12,4 10,0 15 8 - - N 1011,5 25 60
11.12.2019 07:00:00 12,2 9,7 11 6 - - N 1010,9 20 -
11.12.2019 06:00:00 - - - - - - - - - -
11.12.2019 05:00:00 - - - - - - - - - -
11.12.2019 04:00:00 - - - - - - - - - -
11.12.2019 03:00:00 - - - - - - - - - -
11.12.2019 02:00:00 - - - - - - - - - -
11.12.2019 01:00:00 - - - - - - - - - -
11.12.2019 00:00:00 - - - - - - - - - -
10.12.2019 23:00:00 - - - - - - - - - -
10.12.2019 22:00:00 - - - - - - - - - -
10.12.2019 21:00:00 - - - - - - - - - -
10.12.2019 20:00:00 - - - - - - - - - -
10.12.2019 19:00:00 11,0 9,6 4 2 - - N 1009,4 16 -
10.12.2019 18:00:00 11,8 9,7 5 3 - - N 1008,8 16 -
10.12.2019 17:00:00 13,2 10,1 4 2 - - N 1008,0 20 -
10.12.2019 16:00:00 15,8 10,7 4 2 - - NNE 1007,7 25 60
10.12.2019 15:00:00 15,0 11,0 5 3 - - ESE 1007,2 25 60
10.12.2019 14:00:00 14,2 11,2 9 5 - - S 1007,3 25 60
10.12.2019 13:00:00 13,4 11,0 9 5 - - S 1007,9 25 24

tt = temperature
td = dewpoint
ff = wind speed
fx = gusts
dd = wind direction
ppp = reduced air pressure
vv = visibility
sd = sunshine duration

Next stations